sat.trackr.live / text

‹ back to catalog

STARLINK-35109

NORAD 65642 · 2025-210W

PAYLOAD ACTIVE UNKNOWN

§ Identity

Operator
Country
US
Launch date
2025-09-18
Launch site
AFETR
Launch vehicle
Mass (kg)
RCS (m²)

Purposes: comms

External: N2YO · Heavens-Above · Gunter

§ Orbital elements

Epoch: 2026-05-24T19:41:54.174624Z

Period
93.85 min
Inclination
53.1597°
Eccentricity
0.0001190
Mean motion
15.34423982 rev/d
Perigee alt
461.8 km
Apogee alt
463.4 km
Semi-major
6,840.8 km
B*
7.7924e-4
RAAN
312.2857°
Arg perigee
99.9296°
Mean anomaly
260.1841°
Rev number
3,940

§ Raw data

STARLINK-351091 65642U 25210W   26144.82076591  .00026063  00000+0  77924-3 0  99962 65642  53.1597 312.2857 0001190  99.9296 260.1841 15.34423982 39407

JSON: /api/v1/satellites/65642 · /tle

For live sub-satellite position, see the globe view (requires WebGL).

§ Visibility from observer

Set your observer location to see the next 7 days of passes ≥ 10°. The values pass through the URL so the page stays shareable.

No JS? Fill the form by hand. The geolocation button needs JavaScript.